Regional Weather Roundup
Issued by NWS

Home | Current Version | Previous Version | Text Only | Print | Product List | Glossary On
Versions: 1 2 3 4 5 6 7 8 9 10 11 12 13 14 15 16 17 18 19 20 21 22 23 24 25 26 27 28 29 30 31 32 33 34 35 36 37 38 39 40 41 42 43 44 45 46 47 48 49 50
000
ASUS43 KFSD 221902
RWRSD

WEATHER ROUNDUP FOR SOUTH DAKOTA
NATIONAL WEATHER SERVICE SIOUX FALLS SD
200 PM CDT WED MAR 22 2017

NOTE: "FAIR" INDICATES FEW OR NO CLOUDS BELOW 12,000 FEET WITH NO
SIGNIFICANT WEATHER AND/OR OBSTRUCTIONS TO VISIBILITY.


SDZ001>005-009-010-012>017-222000-
NORTHWEST AND NORTH CENTRAL SOUTH DAKOTA

CITY           SKY/WX    TMP DP  RH WIND       PRES   REMARKS
BUFFALO          N/A     51  38  60 S12       29.77F
FAITH            N/A     51  37  58 S29G37    29.84F
MOBRIDGE       CLOUDY    44  28  53 S30G43    29.97F
$$

SDZ012>016-024>037-041>051-057-063-072>074-222000-
SOUTHWEST AND SOUTH CENTRAL SOUTH DAKOTA

CITY           SKY/WX    TMP DP  RH WIND       PRES   REMARKS
RAPID CTY ARPT CLOUDY    58  38  47 SE16      29.79F
PIERRE         MOSUNNY   47  30  51 S32G41    30.00F
CUSTER         CLOUDY    57  31  37 W15G24    29.87F
ELLSWORTH AFB  CLOUDY    57  40  51 S9        29.77F
PHILIP         SUNNY     61  38  42 S25G31    29.87F
PINE RIDGE     CLOUDY    58  39  49 S20G31    29.90F
SPEARFISH      FAIR      52  41  66 NW7       29.82S
WINNER         FAIR      46  31  55 S26G38    30.06F
$$

SDZ004>011-016>023-039-040-222000-
NORTHEAST SOUTH DAKOTA

CITY           SKY/WX    TMP DP  RH WIND       PRES   REMARKS
ABERDEEN       CLOUDY    34  23  64 S29G37    30.18F WCI  20
WATERTOWN      CLOUDY    31  17  56 S25G33    30.24F WCI  17
SISSETON         N/A     31  22  69 S25       30.27F WCI  17
$$

SDZ017-020-022-023-036>040-048>070-222000-
SOUTHEAST SOUTH DAKOTA

CITY           SKY/WX    TMP DP  RH WIND       PRES   REMARKS
SIOUX FALLS    CLOUDY    34  22  61 SE15      30.32F WCI  24
HURON          CLOUDY    32  25  75 SE24G32   30.21F WCI  19
CHAMBERLAIN    CLOUDY    39  29  67 SE25G35   30.10F
MITCHELL       CLOUDY    35  26  69 SE24      30.23F WCI  23
YANKTON        CLOUDY    37  21  52 SE18G26   30.28F
$$

ABBREVIATIONS USED IN REMARKS
   TC - TEMPERATURE IN CELSIUS
  WCI - WIND CHILL INDEX
   HX - HEAT INDEX
  VSB - VISIBILITY





USA.gov is the U.S. government's official web portal to all federal, state and local government web resources and services.